period_start,C,m1,H,J0,J1,J2,J3,J4,J5,JA,JB,JC,JD,JJ,JK,JN,#
2015-08-17 00:03:19,0.00,0.11,0.00,24.96,28.50,30.79,4.77,24.44,1015.04,2035.73,3446.13,3227.02,3513.99,350.13,345.15,15.52,0000 0000 0000 0000 000000
2015-08-17 00:08:20,0.01,0.11,0.00,24.99,28.50,30.80,4.64,24.29,1015.10,2035.84,3446.02,3227.01,3513.99,349.20,344.09,15.55,0000 0000 0000 0000 000000
2015-08-17 00:13:21,-0.00,0.11,0.00,25.01,28.51,30.80,4.67,24.27,1015.08,2035.74,3446.00,3227.00,3513.94,350.20,345.11,15.58,0000 0000 0000 0000 000000
2015-08-17 00:18:22,-0.04,0.11,0.00,25.04,28.52,30.80,4.71,24.35,1014.89,2035.44,3445.99,3226.99,3513.32,350.03,344.84,15.61,0000 0000 0000 0000 000000
2015-08-17 00:23:23,-0.01,0.11,0.00,25.06,28.52,30.82,4.65,24.30,1014.90,2035.17,3445.59,3226.72,3513.02,349.62,344.37,15.64,0000 0000 0000 0000 000000
2015-08-17 00:28:24,0.03,0.11,0.00,25.09,28.55,30.83,4.68,24.34,1014.71,2035.15,3445.10,3226.24,3513.00,349.57,344.24,15.67,0000 0000 0000 0000 000000
2015-08-17 00:33:26,-0.00,0.11,0.00,25.12,28.55,30.84,4.68,24.28,1014.68,2035.14,3445.02,3226.08,3512.99,349.98,344.68,15.70,0000 0000 0000 0000 000000
2015-08-17 00:38:27,0.01,0.11,0.00,25.14,28.56,30.84,4.69,24.28,1014.69,2035.03,3444.98,3226.00,3512.45,349.89,344.28,15.72,0000 0000 0000 0000 000000
2015-08-17 00:43:28,0.01,0.11,0.00,25.17,28.57,30.86,4.66,24.34,1014.67,2035.03,3444.92,3226.00,3512.07,349.81,344.40,15.75,0000 0000 0000 0000 000000
2015-08-17 00:48:29,0.01,0.11,0.00,25.21,28.60,30.87,4.79,24.33,1014.68,2035.01,3444.47,3225.97,3512.00,350.59,344.83,15.78,0000 0000 0000 0000 000000
2015-08-17 00:53:30,0.03,0.11,0.00,25.23,28.60,30.89,4.76,24.28,1014.67,2035.00,3444.06,3225.63,3511.99,350.14,344.47,15.81,0000 0000 0000 0000 000000
2015-08-17 00:58:31,0.02,0.11,0.00,25.26,28.62,30.90,4.76,24.39,1014.66,2035.00,3444.00,3225.08,3511.79,350.23,344.57,15.84,0000 0000 0000 0000 000000
2015-08-17 01:03:33,0.01,0.11,0.00,25.29,28.64,30.91,4.67,24.34,1014.66,2035.00,3443.89,3225.00,3511.18,349.61,343.90,15.87,0000 0000 0000 0000 000000
2015-08-17 01:08:34,0.01,0.11,0.00,25.32,28.65,30.93,4.78,24.34,1014.65,2035.00,3443.52,3225.00,3511.01,349.94,344.11,15.90,0000 0000 0000 0000 000000
2015-08-17 01:13:35,0.01,0.11,0.00,25.35,28.67,30.95,4.77,24.34,1014.59,2035.00,3443.03,3224.97,3510.98,350.06,344.38,15.93,0000 0000 0000 0000 000000
2015-08-17 01:18:36,0.01,0.11,0.00,25.39,28.70,30.97,4.71,24.33,1014.46,2035.00,3443.00,3224.81,3510.90,350.25,344.47,15.96,0000 0000 0000 0000 000000
2015-08-17 01:23:38,0.05,0.12,0.00,25.42,28.71,30.99,4.75,24.44,1014.21,2035.00,3442.96,3224.19,3510.25,350.06,344.11,15.99,0000 0000 0000 0000 000000
2015-08-17 01:28:39,0.02,0.12,0.00,25.45,28.73,31.00,4.65,24.34,1014.18,2034.97,3442.33,3224.02,3510.01,350.02,343.83,16.02,0000 0000 0000 0000 000000
2015-08-17 01:33:40,-0.00,0.12,0.00,25.48,28.75,31.02,4.55,24.35,1014.18,2034.90,3442.00,3223.98,3509.95,349.81,343.71,16.05,0000 0000 0000 0000 000000
2015-08-17 01:38:41,-0.05,0.12,0.00,25.51,28.77,31.05,4.75,24.48,1014.18,2034.37,3441.91,3223.60,3509.18,350.39,344.32,16.08,0000 0000 0000 0000 000000
2015-08-17 01:43:42,0.03,0.12,0.00,25.55,28.80,31.06,4.76,24.41,1014.18,2034.40,3441.70,3223.25,3509.02,350.14,344.18,16.11,0000 0000 0000 0000 000000
2015-08-17 01:48:44,-0.01,0.12,0.00,25.58,28.81,31.08,4.73,24.42,1014.18,2034.20,3441.24,3223.04,3509.00,349.78,343.76,16.13,0000 0000 0000 0000 000000
2015-08-17 01:53:45,-0.01,0.12,0.00,25.61,28.84,31.11,4.71,24.48,1014.18,2034.03,3441.01,3223.00,3508.81,350.06,343.92,16.16,0000 0000 0000 0000 000000
2015-08-17 01:58:46,0.02,0.12,0.00,25.65,28.86,31.13,4.62,24.28,1014.18,2034.01,3440.93,3222.85,3508.16,349.98,343.80,16.19,0000 0000 0000 0000 000000
2015-08-17 02:03:48,0.04,0.12,0.00,25.67,28.88,31.16,4.69,24.41,1014.18,2034.00,3440.31,3222.29,3508.00,349.91,343.75,16.22,0000 0000 0000 0000 000000
2015-08-17 02:08:49,0.01,0.12,0.00,25.70,28.91,31.18,4.79,24.46,1014.17,2034.00,3440.01,3222.02,3507.94,350.90,344.17,16.25,0000 0000 0000 0000 000000
2015-08-17 02:13:50,0.02,0.12,0.00,25.74,28.93,31.20,4.62,24.40,1014.10,2034.00,3439.97,3221.99,3507.21,349.08,343.03,16.28,0000 0000 0000 0000 000000
2015-08-17 02:18:51,0.03,0.12,0.00,25.76,28.96,31.23,4.63,24.35,1014.13,2033.99,3439.45,3221.80,3507.00,349.90,343.30,16.31,0000 0000 0000 0000 000000
2015-08-17 02:23:53,0.03,0.12,0.00,25.79,28.98,31.26,4.73,24.37,1014.05,2033.98,3439.04,3221.17,3506.97,350.32,343.78,16.34,0000 0000 0000 0000 000000
2015-08-17 02:28:54,-0.01,0.12,0.00,25.83,29.01,31.28,4.74,24.38,1014.04,2033.82,3438.94,3221.01,3506.32,350.37,343.89,16.37,0000 0000 0000 0000 000000
2015-08-17 02:33:56,-0.04,0.12,0.00,25.85,29.03,31.30,4.67,24.28,1013.89,2033.48,3438.34,3220.97,3506.01,349.74,343.13,16.40,0000 0000 0000 0000 000000
2015-08-17 02:38:56,0.01,0.12,0.00,25.88,29.06,31.33,4.69,24.41,1013.93,2033.08,3438.01,3220.41,3505.76,349.80,343.23,16.43,0000 0000 0000 0000 000000
2015-08-17 02:43:57,0.02,0.12,0.00,25.91,29.09,31.36,4.72,24.25,1013.72,2033.03,3437.98,3220.02,3505.19,350.34,343.61,16.46,0000 0000 0000 0000 000000
2015-08-17 02:48:58,0.02,0.12,0.00,25.93,29.11,31.38,4.62,24.28,1013.70,2033.01,3437.39,3220.00,3505.01,349.61,342.98,16.49,0000 0000 0000 0000 000000
2015-08-17 02:54:00,0.00,0.12,0.00,25.96,29.14,31.41,4.76,24.32,1013.71,2033.00,3437.03,3219.93,3504.91,349.81,343.16,16.52,0000 0000 0000 0000 000000
2015-08-17 02:59:01,0.05,0.12,0.00,25.99,29.16,31.43,4.78,24.38,1013.71,2033.00,3436.98,3219.25,3504.29,350.55,343.78,16.54,0000 0000 0000 0000 000000
2015-08-17 03:04:03,0.02,0.12,0.00,26.01,29.19,31.46,4.62,24.22,1013.70,2032.99,3436.45,3219.01,3504.01,349.61,342.77,16.57,0000 0000 0000 0000 000000
2015-08-17 03:09:04,0.00,0.12,0.00,26.04,29.22,31.48,4.70,24.38,1013.71,2032.97,3436.02,3218.98,3503.96,350.05,342.97,16.60,0000 0000 0000 0000 000000
2015-08-17 03:14:05,0.03,0.12,0.00,26.06,29.24,31.51,4.69,24.32,1013.69,2032.95,3435.95,3218.72,3503.38,350.18,343.25,16.63,0000 0000 0000 0000 000000
2015-08-17 03:19:06,0.03,0.13,0.00,26.09,29.27,31.54,4.73,24.28,1013.65,2032.85,3435.30,3218.11,3503.02,350.15,343.11,16.66,0000 0000 0000 0000 000000
2015-08-17 03:24:07,-0.07,0.12,0.00,26.12,29.30,31.56,4.85,24.36,1013.35,2032.45,3435.01,3218.00,3502.96,350.58,343.50,16.69,0000 0000 0000 0000 000000
2015-08-17 03:29:09,-0.00,0.12,0.00,26.14,29.32,31.59,4.75,24.32,1013.23,2032.14,3434.86,3217.93,3502.33,350.22,343.06,16.72,0000 0000 0000 0000 000000
2015-08-17 03:34:10,0.04,0.12,0.00,26.18,29.35,31.61,4.66,24.37,1013.20,2032.04,3434.25,3217.32,3502.01,349.53,342.32,16.75,0000 0000 0000 0000 000000
2015-08-17 03:39:11,0.00,0.12,0.00,26.21,29.37,31.64,4.66,24.45,1013.20,2032.00,3434.00,3217.02,3501.94,349.36,342.16,16.78,0000 0000 0000 0000 000000
2015-08-17 03:44:13,0.02,0.12,0.00,26.24,29.40,31.66,4.71,24.32,1013.20,2032.00,3433.92,3217.00,3501.31,349.52,342.34,16.81,0000 0000 0000 0000 000000
2015-08-17 03:49:14,0.03,0.13,0.00,26.27,29.43,31.70,4.66,24.34,1013.20,2032.00,3433.45,3216.82,3501.01,349.64,342.53,16.84,0000 0000 0000 0000 000000
2015-08-17 03:54:15,0.03,0.13,0.00,26.30,29.46,31.72,4.54,24.30,1013.20,2031.99,3433.02,3216.20,3500.96,350.17,342.73,16.87,0000 0000 0000 0000 000000
2015-08-17 03:59:16,0.02,0.13,0.00,26.34,29.48,31.75,4.63,24.28,1013.20,2031.96,3432.96,3216.01,3500.30,349.87,342.49,16.90,0000 0000 0000 0000 000000
2015-08-17 04:04:17,0.02,0.13,0.00,26.37,29.51,31.77,4.70,24.22,1013.13,2031.95,3432.43,3215.98,3500.00,349.92,342.45,16.93,0000 0000 0000 0000 000000
2015-08-17 04:09:18,-0.02,0.13,0.00,26.40,29.54,31.80,4.63,24.21,1012.95,2031.76,3432.02,3215.59,3499.92,350.38,343.14,16.95,0000 0000 0000 0000 000000
2015-08-17 04:14:19,-0.02,0.13,0.00,26.43,29.56,31.83,4.72,24.23,1012.88,2031.32,3431.88,3215.04,3499.22,350.22,342.68,16.98,0000 0000 0000 0000 000000
2015-08-17 04:19:21,0.00,0.13,0.00,26.46,29.60,31.86,4.75,24.32,1012.75,2031.05,3431.14,3214.96,3498.98,350.07,342.51,17.01,0000 0000 0000 0000 000000
2015-08-17 04:24:22,0.05,0.13,0.00,26.48,29.62,31.88,4.69,24.32,1012.72,2031.00,3430.98,3214.32,3498.32,350.10,342.43,17.04,0000 0000 0000 0000 000000
2015-08-17 04:29:23,0.02,0.13,0.00,26.51,29.65,31.91,4.66,24.28,1012.72,2031.00,3430.53,3214.00,3498.00,349.70,342.09,17.07,0000 0000 0000 0000 000000
2015-08-17 04:34:24,0.01,0.13,0.00,26.54,29.68,31.94,4.61,24.22,1012.71,2030.99,3430.01,3213.96,3497.78,349.63,341.79,17.10,0000 0000 0000 0000 000000
2015-08-17 04:39:25,0.05,0.13,0.00,26.57,29.71,31.96,4.57,24.26,1012.71,2030.89,3429.64,3213.23,3497.05,349.78,342.01,17.13,0000 0000 0000 0000 000000
2015-08-17 04:44:26,-0.00,0.13,0.00,26.60,29.74,31.99,4.68,24.23,1012.71,2030.80,3429.15,3213.01,3496.99,349.96,342.24,17.16,0000 0000 0000 0000 000000
2015-08-17 04:49:27,-0.02,0.13,0.00,26.62,29.76,32.01,4.63,24.27,1012.71,2030.61,3429.00,3213.00,3496.53,349.68,341.88,17.19,0000 0000 0000 0000 000000
2015-08-17 04:54:28,-0.02,0.13,0.00,26.65,29.78,32.05,4.59,24.18,1012.71,2030.16,3428.54,3212.65,3496.02,349.77,341.75,17.22,0000 0000 0000 0000 000000
2015-08-17 04:59:30,0.02,0.13,0.00,26.68,29.81,32.07,4.57,24.22,1012.63,2030.03,3428.01,3212.03,3495.88,349.80,342.04,17.25,0000 0000 0000 0000 000000
2015-08-17 05:04:31,0.02,0.13,0.00,26.71,29.84,32.10,4.60,24.26,1012.62,2030.01,3427.89,3211.99,3495.19,349.68,341.60,17.28,0000 0000 0000 0000 000000
2015-08-17 05:09:32,0.05,0.13,0.00,26.73,29.87,32.12,4.63,24.23,1012.56,2030.00,3427.10,3211.53,3494.99,349.70,341.69,17.31,0000 0000 0000 0000 000000
2015-08-17 05:14:33,0.03,0.13,0.00,26.76,29.90,32.15,4.68,24.32,1012.48,2030.00,3427.00,3211.04,3494.46,349.77,341.63,17.34,0000 0000 0000 0000 000000
2015-08-17 05:19:35,0.02,0.13,0.00,26.78,29.92,32.18,4.63,24.23,1012.34,2029.99,3426.55,3210.99,3494.02,349.86,341.76,17.37,0000 0000 0000 0000 000000
2015-08-17 05:24:36,0.02,0.13,0.00,26.81,29.96,32.20,4.69,24.26,1012.27,2029.85,3426.01,3210.46,3493.75,350.01,341.81,17.39,0000 0000 0000 0000 000000
2015-08-17 05:29:37,-0.04,0.14,0.00,26.82,29.98,32.23,4.67,24.30,1012.24,2029.55,3425.86,3210.02,3493.07,349.85,341.69,17.42,0000 0000 0000 0000 000000
2015-08-17 05:34:38,-0.01,0.13,0.00,26.85,30.01,32.25,4.71,24.28,1012.23,2029.20,3425.14,3210.00,3492.98,350.16,341.97,17.45,0000 0000 0000 0000 000000
2015-08-17 05:39:39,0.01,0.13,0.00,26.88,30.03,32.28,4.71,24.30,1012.23,2029.08,3425.00,3209.81,3492.55,350.29,342.04,17.48,0000 0000 0000 0000 000000
2015-08-17 05:44:41,0.03,0.13,0.00,26.91,30.06,32.31,4.57,24.41,1012.02,2029.02,3424.84,3209.24,3492.03,349.60,341.22,17.51,0000 0000 0000 0000 000000
2015-08-17 05:49:42,0.01,0.14,0.00,26.92,30.09,32.34,4.67,24.48,1011.74,2029.00,3424.16,3209.01,3491.95,350.46,342.02,17.54,0000 0000 0000 0000 000000
2015-08-17 05:54:44,0.03,0.14,0.00,26.95,30.11,32.37,4.66,24.47,1011.73,2029.00,3423.98,3208.91,3491.21,349.66,340.98,17.57,0000 0000 0000 0000 000000
2015-08-17 05:59:45,0.05,0.14,0.00,26.97,30.14,32.40,4.68,24.38,1011.73,2028.98,3423.50,3208.28,3490.97,349.93,341.42,17.60,0000 0000 0000 0000 000000
2015-08-17 06:04:47,0.02,0.14,0.00,26.98,30.17,32.42,4.67,24.43,1011.73,2028.89,3423.00,3207.99,3490.29,350.14,341.69,17.63,0000 0000 0000 0000 000000
2015-08-17 06:09:48,0.01,0.14,0.00,27.00,30.19,32.45,4.75,24.42,1011.74,2028.85,3422.70,3207.93,3490.01,350.71,342.06,17.66,0000 0000 0000 0000 000000
2015-08-17 06:14:49,-0.03,0.14,0.00,27.01,30.22,32.48,4.69,24.32,1011.75,2028.44,3422.07,3207.40,3489.95,350.12,341.21,17.69,0000 0000 0000 0000 000000
2015-08-17 06:19:50,-0.01,0.14,0.00,27.04,30.25,32.50,4.70,24.28,1011.84,2028.20,3421.99,3207.03,3489.33,349.73,341.15,17.72,0000 0000 0000 0000 000000
2015-08-17 06:24:51,0.01,0.14,0.00,27.06,30.27,32.53,4.65,24.21,1011.90,2028.05,3421.62,3206.99,3489.01,349.92,341.33,17.75,0000 0000 0000 0000 000000
2015-08-17 06:29:52,0.03,0.14,0.00,27.08,30.30,32.55,4.69,24.32,1011.79,2028.01,3421.04,3206.70,3488.81,349.92,341.16,17.78,0000 0000 0000 0000 000000
2015-08-17 06:34:54,0.04,0.14,0.00,27.10,30.32,32.57,4.70,24.22,1011.78,2028.00,3420.90,3206.07,3488.07,350.33,341.62,17.80,0000 0000 0000 0000 000000
2015-08-17 06:39:55,0.02,0.14,0.00,27.13,30.35,32.60,4.66,24.23,1011.80,2028.00,3420.11,3205.99,3487.97,350.22,341.35,17.83,0000 0000 0000 0000 000000
2015-08-17 06:44:56,0.03,0.14,0.00,27.15,30.37,32.63,4.61,24.14,1011.78,2027.99,3420.00,3205.77,3487.40,349.74,341.12,17.86,0000 0000 0000 0000 000000
2015-08-17 06:49:58,0.03,0.14,0.00,27.17,30.39,32.65,4.69,24.17,1011.75,2027.97,3419.82,3205.12,3487.00,350.13,341.41,17.89,0000 0000 0000 0000 000000
2015-08-17 06:54:59,0.01,0.14,0.00,27.20,30.42,32.67,4.74,24.22,1011.73,2027.91,3419.10,3205.00,3486.78,350.07,341.19,17.92,0000 0000 0000 0000 000000
2015-08-17 07:00:00,-0.05,0.14,0.00,27.21,30.44,32.70,4.63,24.06,1011.73,2027.58,3418.97,3204.82,3486.09,349.92,340.92,17.95,0000 0000 0000 0000 000000
2015-08-17 07:05:01,0.03,0.14,0.00,27.23,30.47,32.72,4.69,24.13,1011.73,2027.26,3418.54,3204.21,3485.98,350.20,341.34,17.98,0000 0000 0000 0000 000000
2015-08-17 07:10:03,-0.00,0.14,0.00,27.25,30.49,32.73,4.81,24.20,1011.73,2027.11,3418.03,3204.01,3485.41,350.35,341.30,18.01,0000 0000 0000 0000 000000
2015-08-17 07:15:04,0.01,0.14,0.00,27.28,30.51,32.76,4.63,24.18,1011.73,2027.02,3417.87,3203.87,3485.00,349.99,341.08,18.04,0000 0000 0000 0000 000000
2015-08-17 07:20:05,0.05,0.14,0.00,27.31,30.54,32.79,4.73,24.26,1011.66,2027.00,3417.17,3203.24,3484.76,350.00,340.94,18.07,0000 0000 0000 0000 000000
2015-08-17 07:25:07,0.01,0.15,0.00,27.33,30.56,32.81,4.63,24.18,1011.60,2027.00,3416.99,3203.00,3484.05,349.92,340.91,18.10,0000 0000 0000 0000 000000
2015-08-17 07:30:08,0.01,0.15,0.00,27.35,30.59,32.83,4.53,24.08,1011.48,2027.00,3416.63,3202.97,3483.97,349.64,340.51,18.13,0000 0000 0000 0000 000000
2015-08-17 07:35:08,0.05,0.15,0.00,27.37,30.61,32.86,4.67,24.22,1011.51,2026.98,3416.04,3202.50,3483.42,349.87,340.90,18.16,0000 0000 0000 0000 000000
2015-08-17 07:40:10,0.00,0.15,0.00,27.39,30.64,32.88,4.65,24.19,1011.43,2026.90,3415.96,3202.02,3483.00,350.30,341.31,18.19,0000 0000 0000 0000 000000
2015-08-17 07:45:11,0.00,0.15,0.00,27.41,30.66,32.91,4.74,24.16,1011.49,2026.74,3415.35,3201.99,3482.79,349.94,340.79,18.21,0000 0000 0000 0000 000000
2015-08-17 07:50:12,-0.01,0.15,0.00,27.43,30.68,32.92,4.63,24.22,1011.47,2026.49,3415.01,3201.77,3482.15,349.47,340.26,18.24,0000 0000 0000 0000 000000
2015-08-17 07:55:13,-0.01,0.15,0.00,27.45,30.71,32.95,4.62,24.18,1011.52,2026.17,3414.92,3201.12,3481.99,350.34,341.24,18.27,0000 0000 0000 0000 000000
2015-08-17 08:00:15,0.02,0.15,0.00,27.47,30.73,32.97,4.60,24.08,1011.59,2026.07,3414.34,3201.00,3481.67,349.71,340.46,18.30,0000 0000 0000 0000 000000
2015-08-17 08:05:16,0.01,0.15,0.00,27.48,30.75,32.99,4.65,24.21,1011.56,2026.01,3414.00,3200.95,3481.05,349.71,340.70,18.33,0000 0000 0000 0000 000000
2015-08-17 08:10:17,0.03,0.15,0.00,27.50,30.77,33.01,4.66,24.11,1011.42,2026.00,3413.90,3200.43,3480.99,350.09,340.83,18.36,0000 0000 0000 0000 000000
2015-08-17 08:15:18,0.05,0.15,0.00,27.53,30.80,33.04,4.71,24.28,1011.37,2026.00,3413.16,3200.05,3480.49,350.29,340.92,18.39,0000 0000 0000 0000 000000
2015-08-17 08:20:20,0.00,0.15,0.00,27.55,30.82,33.07,4.68,24.22,1011.37,2025.99,3412.99,3199.99,3480.03,349.98,340.80,18.42,0000 0000 0000 0000 000000
2015-08-17 08:25:21,0.04,0.15,0.00,27.56,30.85,33.09,4.56,24.17,1011.36,2025.98,3412.55,3199.62,3479.96,349.50,340.28,18.45,0000 0000 0000 0000 000000
2015-08-17 08:30:22,0.03,0.15,0.00,27.57,30.86,33.11,4.75,24.20,1011.38,2025.91,3412.04,3199.08,3479.25,350.31,340.98,18.48,0000 0000 0000 0000 000000
2015-08-17 08:35:23,-0.02,0.15,0.00,27.60,30.89,33.13,4.64,24.19,1011.37,2025.76,3411.86,3199.00,3478.98,349.82,340.48,18.51,0000 0000 0000 0000 000000
2015-08-17 08:40:24,-0.02,0.15,0.00,27.60,30.91,33.15,4.69,24.13,1011.48,2025.36,3411.16,3198.97,3478.66,350.33,340.96,18.54,0000 0000 0000 0000 000000
2015-08-17 08:45:25,0.01,0.15,0.00,27.62,30.93,33.17,4.56,24.11,1011.49,2025.16,3411.01,3198.47,3478.08,349.92,340.64,18.57,0000 0000 0000 0000 000000
2015-08-17 08:50:27,0.01,0.15,0.00,27.64,30.95,33.19,4.63,24.18,1011.53,2025.05,3410.92,3198.03,3477.98,350.05,340.59,18.60,0000 0000 0000 0000 000000
2015-08-17 08:55:28,0.03,0.15,0.00,27.66,30.97,33.21,4.71,24.18,1011.55,2025.01,3410.24,3198.00,3477.51,350.27,340.85,18.62,0000 0000 0000 0000 000000
2015-08-17 09:00:29,0.01,0.15,0.00,27.68,31.00,33.24,4.61,24.17,1011.45,2025.00,3410.00,3197.86,3477.02,349.66,340.35,18.65,0000 0000 0000 0000 000000
2015-08-17 09:05:31,0.04,0.15,0.00,27.69,31.01,33.27,4.66,24.20,1011.30,2025.00,3409.66,3197.15,3476.89,349.70,340.19,18.68,0000 0000 0000 0000 000000
2015-08-17 09:10:32,0.03,0.16,0.00,27.71,31.03,33.28,4.63,24.13,1011.27,2024.99,3409.03,3197.00,3476.11,350.05,340.37,18.71,0000 0000 0000 0000 000000
2015-08-17 09:15:33,0.01,0.16,0.00,27.72,31.06,33.29,4.69,24.23,1011.26,2024.97,3408.94,3196.88,3476.00,349.48,339.85,18.74,0000 0000 0000 0000 000000
2015-08-17 09:20:35,0.06,0.16,0.00,27.74,31.07,33.32,4.73,24.19,1011.26,2024.95,3408.32,3196.26,3475.71,350.22,340.78,18.77,0000 0000 0000 0000 000000
2015-08-17 09:25:36,0.00,0.16,0.00,27.75,31.10,33.33,4.69,24.23,1011.25,2024.85,3408.00,3196.01,3475.04,350.15,340.55,18.80,0000 0000 0000 0000 000000
2015-08-17 09:30:37,-0.02,0.16,0.00,27.77,31.12,33.36,4.72,24.17,1011.25,2024.61,3407.71,3195.95,3474.92,350.58,340.68,18.83,0000 0000 0000 0000 000000
2015-08-17 09:35:38,0.03,0.16,0.00,27.77,31.14,33.38,4.65,24.16,1011.25,2024.40,3407.05,3195.48,3474.25,349.91,340.48,18.86,0000 0000 0000 0000 000000
2015-08-17 09:40:40,-0.02,0.16,0.00,27.78,31.15,33.40,4.72,24.09,1011.24,2024.11,3406.91,3195.05,3474.00,349.81,340.32,18.89,0000 0000 0000 0000 000000
2015-08-17 09:45:41,0.02,0.16,0.00,27.81,31.17,33.42,4.78,24.18,1011.23,2024.04,3406.16,3194.99,3473.71,350.55,340.85,18.92,0000 0000 0000 0000 000000
2015-08-17 09:50:42,0.04,0.16,0.00,27.82,31.20,33.44,4.67,24.16,1011.22,2024.01,3405.97,3194.53,3473.07,350.12,340.58,18.95,0000 0000 0000 0000 000000
2015-08-17 09:55:43,0.03,0.16,0.00,27.83,31.21,33.45,4.66,24.22,1011.23,2024.00,3405.57,3194.02,3472.97,350.04,340.42,18.98,0000 0000 0000 0000 000000
2015-08-17 10:00:45,0.02,0.16,0.00,27.85,31.23,33.47,4.66,24.15,1011.24,2024.00,3405.01,3194.00,3472.42,350.11,340.31,19.01,0000 0000 0000 0000 000000
2015-08-17 10:05:46,0.01,0.16,0.00,27.87,31.25,33.50,4.67,24.07,1011.24,2024.00,3404.96,3193.85,3472.02,350.25,340.50,19.04,0000 0000 0000 0000 000000
2015-08-17 10:10:47,0.04,0.16,0.00,27.87,31.26,33.51,4.66,24.07,1011.24,2023.99,3404.37,3193.18,3471.94,349.82,340.07,19.06,0000 0000 0000 0000 000000
2015-08-17 10:15:48,0.02,0.16,0.00,27.89,31.28,33.53,4.70,24.09,1011.25,2023.98,3404.01,3193.00,3471.37,349.97,340.01,19.09,0000 0000 0000 0000 000000
2015-08-17 10:20:50,0.01,0.16,0.00,27.90,31.30,33.54,4.62,24.11,1011.25,2023.95,3403.87,3192.95,3471.01,349.87,340.22,19.12,0000 0000 0000 0000 000000
2015-08-17 10:25:51,0.02,0.16,0.00,27.92,31.32,33.56,4.68,24.11,1011.25,2023.83,3403.16,3192.56,3470.90,349.77,340.01,19.15,0000 0000 0000 0000 000000
2015-08-17 10:30:52,-0.02,0.17,0.00,27.93,31.33,33.57,4.66,24.21,1011.25,2023.61,3402.98,3192.06,3470.23,349.61,339.72,19.18,0000 0000 0000 0000 000000
2015-08-17 10:35:53,-0.01,0.16,0.00,27.95,31.35,33.59,4.66,24.13,1011.23,2023.35,3402.81,3192.00,3470.01,349.70,339.87,19.21,0000 0000 0000 0000 000000
2015-08-17 10:40:54,-0.01,0.16,0.00,27.95,31.37,33.60,4.57,24.15,1011.23,2023.14,3402.11,3191.99,3469.98,349.91,339.96,19.24,0000 0000 0000 0000 000000
2015-08-17 10:45:55,0.02,0.16,0.00,27.97,31.37,33.63,4.55,24.13,1011.23,2023.10,3402.01,3191.81,3469.49,349.80,339.94,19.27,0000 0000 0000 0000 000000
2015-08-17 10:50:57,0.03,0.17,0.00,27.97,31.40,33.64,4.66,24.14,1011.17,2023.04,3401.90,3191.15,3469.02,349.96,340.13,19.30,0000 0000 0000 0000 000000
2015-08-17 10:55:58,0.02,0.17,0.00,27.98,31.41,33.66,4.66,24.23,1011.10,2023.01,3401.15,3191.00,3468.96,349.61,339.82,19.33,0000 0000 0000 0000 000000
2015-08-17 11:00:59,0.01,0.17,0.00,27.99,31.42,33.66,4.67,24.07,1011.17,2023.00,3401.00,3190.98,3468.39,350.14,340.24,19.36,0000 0000 0000 0000 000000
2015-08-17 11:06:01,0.02,0.17,0.00,28.00,31.44,33.69,4.57,24.06,1011.19,2023.00,3400.97,3190.74,3468.04,349.49,339.36,19.39,0000 0000 0000 0000 000000
2015-08-17 11:11:02,0.04,0.17,0.00,28.01,31.45,33.70,4.67,24.12,1011.22,2023.00,3400.37,3190.16,3467.99,350.13,340.22,19.42,0000 0000 0000 0000 000000
2015-08-17 11:16:03,0.01,0.17,0.00,28.02,31.47,33.71,4.68,24.15,1011.24,2023.00,3400.02,3190.00,3467.71,350.12,340.06,19.45,0000 0000 0000 0000 000000
2015-08-17 11:21:04,0.01,0.17,0.00,28.03,31.49,33.72,4.59,24.09,1011.24,2022.98,3399.89,3189.93,3467.04,350.16,340.32,19.47,0000 0000 0000 0000 000000
2015-08-17 11:26:06,0.03,0.17,0.00,28.05,31.50,33.75,4.69,24.14,1011.24,2022.93,3399.23,3189.50,3466.98,349.92,339.98,19.50,0000 0000 0000 0000 000000
2015-08-17 11:31:07,0.03,0.17,0.00,28.05,31.52,33.76,4.68,24.07,1011.24,2022.90,3399.00,3189.08,3466.55,349.96,340.12,19.53,0000 0000 0000 0000 000000
2015-08-17 11:36:08,-0.03,0.17,0.00,28.05,31.52,33.77,4.77,24.13,1011.23,2022.70,3398.78,3189.00,3466.04,350.24,340.20,19.56,0000 0000 0000 0000 000000
2015-08-17 11:41:10,-0.00,0.17,0.00,28.06,31.55,33.77,4.61,24.11,1011.24,2022.42,3398.16,3188.98,3465.99,349.90,339.74,19.59,0000 0000 0000 0000 000000
2015-08-17 11:46:11,0.01,0.17,0.00,28.07,31.55,33.80,4.71,24.12,1011.24,2022.32,3398.00,3188.68,3465.66,350.50,340.49,19.62,0000 0000 0000 0000 000000
2015-08-17 11:51:12,0.01,0.17,0.00,28.07,31.57,33.81,4.71,24.15,1011.21,2022.14,3397.94,3188.12,3465.05,350.29,340.25,19.65,0000 0000 0000 0000 000000
2015-08-17 11:56:14,0.02,0.17,0.00,28.07,31.58,33.82,4.61,24.11,1011.19,2022.06,3397.29,3188.00,3465.00,350.10,340.12,19.68,0000 0000 0000 0000 000000
2015-08-17 12:01:15,0.02,0.17,0.00,28.09,31.60,33.84,4.59,24.13,1011.09,2022.02,3397.01,3187.96,3464.61,349.89,339.89,19.71,0000 0000 0000 0000 000000
2015-08-17 12:06:16,0.00,0.17,0.00,28.10,31.61,33.85,4.62,24.08,1011.10,2022.01,3396.98,3187.87,3464.06,349.79,339.80,19.74,0000 0000 0000 0000 000000
2015-08-17 12:11:17,0.05,0.17,0.00,28.10,31.62,33.86,4.59,24.05,1011.07,2022.00,3396.49,3187.33,3463.99,349.19,339.37,19.77,0000 0000 0000 0000 000000
2015-08-17 12:16:19,0.01,0.17,0.00,28.11,31.63,33.87,4.65,24.10,1011.12,2022.00,3396.04,3187.02,3463.95,349.92,340.09,19.80,0000 0000 0000 0000 000000
2015-08-17 12:21:20,0.01,0.17,0.00,28.11,31.65,33.88,4.63,24.21,1010.98,2022.00,3396.00,3187.00,3463.42,349.87,339.69,19.83,0000 0000 0000 0000 000000
2015-08-17 12:26:21,0.02,0.18,0.00,28.11,31.65,33.90,4.61,24.11,1010.81,2022.00,3395.61,3186.92,3463.01,350.02,339.85,19.86,0000 0000 0000 0000 000000
2015-08-17 12:31:22,0.03,0.18,0.00,28.12,31.67,33.91,4.70,24.12,1010.81,2021.99,3395.05,3186.44,3462.97,350.22,339.96,19.88,0000 0000 0000 0000 000000
2015-08-17 12:36:24,0.15,0.18,0.00,28.14,31.67,33.92,4.60,24.17,1010.80,2021.98,3393.58,3185.36,3461.58,350.01,339.86,19.91,0000 0000 0000 0000 000000
2015-08-17 12:41:25,0.05,0.18,0.00,28.14,31.69,33.92,4.63,24.18,1010.81,2021.97,3392.52,3184.62,3460.83,349.81,339.69,19.94,0000 0000 0000 0000 000000
2015-08-17 12:46:26,0.03,0.18,0.00,28.14,31.70,33.94,4.67,24.15,1010.79,2021.97,3392.06,3184.19,3460.27,350.04,339.83,19.97,0000 0000 0000 0000 000000
2015-08-17 12:51:27,-0.00,0.18,0.00,28.15,31.70,33.94,4.65,24.21,1010.77,2021.94,3392.00,3184.01,3460.01,350.21,339.96,20.00,0000 0000 0000 0000 000000
2015-08-17 12:56:29,0.01,0.18,0.00,28.15,31.72,33.96,4.61,24.20,1010.76,2021.87,3391.78,3184.00,3459.98,350.13,340.04,20.03,0000 0000 0000 0000 000000
2015-08-17 13:01:30,0.03,0.18,0.00,28.15,31.72,33.97,4.71,24.15,1010.76,2021.82,3391.12,3183.95,3459.52,349.86,339.63,20.06,0000 0000 0000 0000 000000